Vorticity
11 8 -3 0 16 11 -9 8 26 6 3 9 2 5 6 9 8 5 14 8 -3 2 6 9 1 -8 6 22 18 9 7 6 8 11 5 4 7 6 5 4 4 5 3 4 7 10 12 13 11 9 9 5 4 4 5 6 7 7 6 5 5 6 6 8 8 7 7 8 9 9 10 11 11 11 11 11 10 8 6 5 5 6 6 6 6 5
7 6 5 11 10 -2 -1 17 18 4 7 11 10 13 7 4 1 -1 5 -1 -5 1 1 6 6 -5 -3 11 18 15 7 1 7 12 7 7 6 4 5 3 2 3 3 3 5 5 7 11 12 11 11 9 7 7 7 7 7 7 7 7 7 8 7 8 8 7 7 7 7 7 7 8 8 8 10 10 9 8 7 7 7 7 7 8 8 6
6 11 17 19 2 -8 7 16 11 13 15 6 4 9 3 -1 1 -2 -5 -4 -2 -1 1 6 6 -2 -8 -1 7 6 2 -0 5 12 13 9 5 3 4 5 6 4 1 3 5 4 4 6 11 12 12 12 10 9 9 7 7 7 6 6 6 5 5 6 6 6 6 4 3 3 3 3 3 4 6 6 5 4 4 4 5 5 5 5 6 6
5 24 27 11 -6 -5 9 10 13 21 9 -5 -0 5 0 -3 -1 -4 -10 -5 -3 -2 3 1 1 3 -5 -4 0 -3 -0 1 2 14 20 10 5 6 4 4 8 7 3 4 5 4 3 3 5 9 11 12 11 11 9 7 6 6 5 5 5 4 4 5 5 4 3 2 1 1 1 2 2 3 3 4 4 3 3 3 4 4 3 3 3 3
3 28 25 0 -9 -0 8 7 16 18 -2 -7 3 3 0 -1 -4 -4 -4 -4 -5 0 4 -2 -0 4 -5 -6 -0 -0 4 3 -0 13 23 13 6 7 6 6 8 7 5 5 7 5 3 3 2 4 8 11 11 10 8 6 5 5 5 4 4 4 4 4 3 3 2 2 1 1 2 2 3 3 3 4 4 4 4 4 4 4 4 3 3 3
11 25 13 -3 -4 2 9 11 13 12 -0 -4 2 -0 0 0 -4 -5 -6 -10 -4 7 7 2 -1 -5 -5 0 2 1 3 1 -0 12 20 12 9 10 10 12 13 11 8 5 5 5 4 4 3 2 4 8 10 10 8 6 5 5 5 4 3 3 3 3 2 2 2 2 2 2 2 3 3 3 3 3 3 3 4 4 4 4 4 3 3 3
13 21 11 1 -0 3 11 12 6 5 1 -4 -0 -1 -5 -4 -0 2 -1 -6 -1 0 -8 -4 -2 -6 -1 4 3 5 4 2 4 14 19 10 8 11 9 11 15 15 13 6 3 6 8 7 5 4 3 5 7 8 8 6 6 6 4 4 4 3 2 2 2 2 2 2 2 2 2 2 2 2 3 2 3 3 3 4 4 4 4 4 3 3
12 19 15 5 1 3 8 10 5 -2 -8 -10 -0 2 -6 -4 1 3 5 3 -0 -9 -11 5 11 2 2 3 3 4 3 7 13 14 16 11 10 12 8 7 10 13 13 10 8 9 8 6 6 5 5 6 6 6 7 6 5 6 5 4 4 3 3 2 2 2 2 2 2 2 2 2 2 2 2 2 2 2 2 3 3 3 4 4 4 3
11 16 17 8 1 2 6 13 8 -4 -8 -3 5 3 -3 2 4 -1 -0 -2 -4 -3 1 14 14 4 3 -1 -5 5 14 16 13 8 6 8 9 9 6 5 6 10 11 10 11 11 9 7 3 4 8 10 8 6 5 5 5 5 4 5 5 4 3 3 3 2 2 2 2 3 3 2 2 1 2 3 4 3 3 2 2 3 3 3 4 4
6 11 16 8 -0 2 10 16 6 -7 -3 8 12 7 2 5 5 0 -1 -4 -2 6 9 12 10 1 1 -2 -5 10 21 11 3 2 4 6 7 6 5 4 6 13 15 12 10 9 9 8 2 3 10 13 10 8 6 5 4 3 3 4 6 6 5 4 5 5 4 4 3 3 2 1 -0 1 2 4 4 4 4 4 3 4 5 4 4 4
4 9 13 7 0 5 13 13 1 -8 -0 10 12 8 4 6 3 -3 -0 0 -0 4 7 8 7 1 -0 0 4 11 8 1 -1 -1 -1 -1 1 6 6 5 8 12 13 12 13 14 8 7 10 11 10 9 8 8 9 8 6 5 4 3 4 5 4 4 4 4 4 4 3 2 1 -0 0 2 4 4 3 3 4 6 7 7 7 6 6 5
5 9 12 7 2 7 14 9 -1 -5 0 11 13 5 -2 -1 -1 -2 1 1 -1 0 0 2 8 11 4 -1 7 10 -1 -4 -3 -7 -6 -5 0 10 7 3 3 2 6 5 11 27 21 9 13 14 7 5 6 8 8 8 8 9 7 6 7 6 4 4 5 5 4 3 3 3 3 4 6 7 8 7 6 6 8 11 11 9 8 8 6 4
7 10 13 9 2 7 11 6 4 -1 0 14 17 5 -4 -4 1 3 -0 -3 -0 2 -1 -1 3 6 2 -3 4 8 2 -0 -2 -3 4 1 0 8 6 3 -2 -4 8 5 7 32 34 17 14 11 5 4 4 3 3 4 6 8 10 10 9 8 8 10 10 10 10 10 9 9 9 10 13 13 12 10 10 11 13 12 10 8 7 7 5 5
6 7 12 10 2 6 10 7 7 2 1 16 19 6 -2 -4 2 5 -0 -2 1 3 1 1 4 3 1 -2 0 5 2 -2 -6 -0 13 9 -1 5 9 7 1 1 10 8 7 22 23 13 9 5 4 5 5 4 3 5 6 6 8 8 7 8 10 11 12 12 13 13 13 12 13 16 17 15 12 11 12 12 11 9 7 6 5 6 5 5
5 5 9 9 2 4 9 9 11 3 -1 11 14 4 -2 -1 3 1 2 5 -1 -3 1 4 5 2 -1 -1 1 6 4 -0 -1 2 8 2 -5 8 17 10 9 12 14 14 15 17 14 10 5 1 -0 -1 2 7 7 6 7 8 7 6 6 8 9 10 11 12 12 12 13 12 14 17 15 10 8 9 9 9 9 6 5 5 5 6 6 7
6 6 10 11 5 6 7 8 14 7 1 10 8 -2 -1 6 2 -8 -2 6 0 0 6 7 10 8 1 -1 2 5 4 7 15 13 7 0 -3 8 14 9 11 14 13 14 11 8 13 19 16 13 10 4 4 6 7 8 8 8 9 9 8 7 9 11 10 10 11 10 12 12 13 14 12 8 6 7 8 8 8 7 6 7 7 6 7 8
7 7 10 11 8 7 7 8 12 9 6 10 5 -1 5 8 3 -4 -5 -3 -3 5 9 6 11 16 9 4 6 4 -2 -1 7 13 15 13 8 8 8 6 6 6 7 5 0 2 11 16 16 19 22 23 20 13 9 9 8 9 12 11 10 7 8 9 9 9 9 7 8 8 8 9 10 10 8 7 8 9 10 10 8 7 7 7 8 8
10 9 7 9 10 9 10 10 9 8 9 7 -1 0 4 -0 1 4 -3 -4 -2 2 5 0 -2 2 4 5 8 13 15 10 4 6 10 7 4 5 5 1 -3 -1 4 -0 -1 8 10 6 8 14 19 24 25 22 18 14 10 11 12 10 8 7 6 6 6 6 6 6 6 6 5 5 6 9 11 10 9 9 11 11 8 6 5 7 8 7
12 13 10 9 11 11 12 11 9 6 7 4 -1 7 14 8 6 3 -7 -3 6 3 2 0 -8 -9 -6 -10 -16 -12 -3 1 -1 6 14 17 17 13 7 3 -2 -0 6 2 0 8 7 5 10 16 20 22 19 18 16 13 12 11 11 9 7 5 3 2 5 6 7 6 4 5 6 5 5 7 8 10 9 8 9 9 7 4 3 7 10 9
12 14 14 11 12 14 11 6 7 9 7 5 6 14 22 16 7 4 1 1 5 5 4 2 -6 -6 3 5 0 -4 -5 3 14 15 11 13 17 12 5 3 -1 0 7 3 -2 5 9 10 12 11 15 21 19 15 9 7 10 8 6 6 5 3 1 2 6 6 5 4 4 7 7 3 4 7 7 9 8 6 7 7 7 5 4 7 9 7
14 13 12 14 15 14 10 2 6 15 11 7 10 10 13 12 -1 -2 9 12 6 2 4 5 -2 1 19 24 18 19 21 23 24 17 9 10 9 6 4 0 -3 2 7 0 -2 8 12 9 8 7 10 17 20 18 13 8 7 6 5 5 4 2 2 4 6 4 4 4 3 7 9 4 4 7 7 7 7 7 6 6 9 7 4 7 10 10
11 11 10 17 15 8 10 8 7 16 14 8 10 5 2 7 -0 -5 5 12 8 4 2 1 -2 6 22 13 1 14 24 13 3 3 9 10 3 1 2 -0 2 6 2 -2 4 12 12 8 8 11 14 16 14 13 14 11 8 7 5 4 3 3 4 5 4 4 6 5 5 11 12 5 4 7 6 5 6 7 6 6 9 9 6 8 11 11
18 15 10 12 13 10 15 14 4 7 11 6 9 10 4 1 3 7 9 7 7 6 -3 -9 -3 8 10 1 -3 9 12 2 -3 -0 3 6 4 3 3 3 6 4 1 6 14 13 11 10 11 18 24 20 12 8 8 7 7 6 4 4 4 4 4 3 3 6 6 5 10 13 9 6 9 7 4 6 6 5 7 8 8 9 9 10 10 8
26 23 15 12 15 14 15 15 7 6 11 9 9 16 13 4 4 11 10 8 14 15 3 -6 -2 2 6 15 18 11 5 5 5 5 5 8 9 2 -1 2 3 3 5 10 13 9 8 7 5 11 19 18 15 11 7 7 7 5 5 6 4 3 4 4 5 6 5 9 14 12 7 11 16 8 3 8 7 1 6 8 8 9 6 3 5 5
22 24 18 13 17 16 11 9 5 5 10 10 9 13 14 12 12 12 7 11 19 20 14 7 2 1 9 24 23 8 6 10 10 11 11 12 15 11 6 4 3 7 7 3 5 9 13 15 11 6 6 9 15 13 8 7 7 5 6 4 2 4 4 4 5 5 7 13 14 9 7 11 15 11 7 9 6 1 5 7 5 8 6 3 6 6
16 26 26 18 13 10 6 3 3 9 12 7 3 3 7 13 22 23 9 2 6 10 11 8 6 7 7 7 6 5 6 5 4 9 12 15 22 21 13 6 4 9 3 -4 3 8 9 14 11 5 5 9 13 13 10 8 5 3 3 1 2 3 2 3 5 5 9 13 8 9 17 13 5 8 12 12 9 7 11 13 8 4 2 2 8 8
1 13 28 31 20 9 8 9 11 16 10 2 4 5 5 10 21 23 4 -10 -1 7 8 9 7 5 -0 -4 0 5 5 3 2 4 8 13 16 12 8 5 4 5 -1 -5 4 5 3 7 3 -0 6 10 9 8 7 4 -2 -2 0 1 2 2 1 4 6 5 9 10 3 11 30 21 -1 6 21 17 10 8 5 5 6 6 7 9 11 8
-2 -1 15 34 32 18 13 14 15 16 6 -0 6 8 5 7 15 14 -4 -11 2 5 8 17 11 -0 -3 -1 4 4 2 5 8 7 8 8 6 5 7 5 2 2 0 1 6 4 3 6 4 2 7 13 13 9 6 4 2 5 9 8 5 3 2 3 5 7 9 8 6 16 35 30 9 10 17 8 4 11 8 2 2 4 8 13 12 6
3 -0 2 21 37 28 13 8 8 8 4 1 5 7 7 10 15 10 -6 -6 3 -4 -3 11 9 3 5 5 6 5 4 10 13 10 7 2 -2 2 4 3 3 3 2 4 6 7 4 3 5 7 12 18 16 11 10 9 6 6 5 3 4 7 7 4 5 9 7 8 12 11 16 23 19 17 17 15 16 15 6 1 3 9 12 10 5 -2
6 10 2 3 29 37 16 4 5 3 1 4 6 7 10 13 15 10 -1 1 5 -3 -3 2 2 10 15 4 -2 1 2 4 2 -1 1 -1 -1 4 4 3 3 0 -1 1 3 5 5 2 5 10 14 13 6 2 6 7 5 2 -5 -7 -3 3 10 12 12 14 9 8 11 6 11 26 30 23 15 16 20 16 13 14 11 9 5 -1 -4 -16
6 12 9 -3 15 36 22 4 3 2 1 6 8 7 10 13 14 12 6 5 5 2 3 0 -3 7 12 -0 -5 -1 -2 -5 -5 -4 -0 1 6 9 3 0 1 -1 -0 2 2 2 1 -0 7 14 10 4 -0 1 7 8 6 2 -3 -4 -0 4 11 14 14 14 8 6 9 13 27 35 24 15 15 15 17 18 24 27 19 13 11 10 12 -5
7 1 7 3 9 32 32 7 -6 -3 3 9 10 4 4 8 8 9 10 8 7 7 11 12 9 6 5 -1 -3 -1 -3 -3 0 -0 -2 4 11 9 1 -1 2 2 3 3 1 2 0 -0 10 15 5 -1 2 5 8 8 5 2 -0 2 7 9 10 11 11 11 9 9 7 8 26 31 10 2 16 23 26 34 30 10 -5 7 29 36 31 14
9 3 8 8 8 27 35 10 -8 -1 10 18 17 2 -4 1 1 5 10 9 9 8 9 17 22 14 8 5 0 -2 -0 4 4 1 2 11 14 8 3 5 6 3 3 5 3 2 1 0 9 11 -2 -4 4 5 8 15 13 7 5 6 9 10 9 9 9 9 8 5 3 8 28 35 16 4 9 9 15 39 41 7 -20 -4 26 32 18 7
9 11 11 11 10 23 32 16 -0 -6 -10 -0 15 11 2 1 -2 -2 5 6 2 1 1 9 18 16 15 13 3 -5 0 5 1 -1 6 11 8 5 1 -1 0 1 2 5 4 1 0 4 9 5 -7 -4 6 4 7 14 9 4 4 6 9 8 8 9 7 7 6 2 12 28 25 12 6 9 14 10 8 18 21 7 3 18 32 26 10 3
12 8 6 10 12 15 20 18 11 -1 -18 -16 4 11 5 5 1 -5 1 8 4 1 3 8 11 8 7 10 8 6 8 7 0 -0 3 0 -5 -4 -3 -4 2 6 4 2 1 3 7 9 6 -3 -10 -2 8 8 12 11 0 -1 5 9 11 9 7 8 6 6 7 5 16 25 9 -3 6 10 7 13 20 18 11 10 21 29 28 19 9 9
11 6 1 3 8 10 11 10 13 13 3 -7 -2 2 1 10 14 3 -1 8 10 7 7 9 12 11 4 -1 -0 6 12 11 9 13 11 1 -5 -5 -3 -1 1 0 -1 1 4 8 8 8 6 -2 -6 0 7 10 16 11 -3 -2 7 10 9 7 7 8 7 8 11 11 13 12 4 5 12 10 8 19 29 20 5 7 19 20 16 14 11 9
7 8 5 5 9 9 5 2 7 14 12 4 4 8 6 10 18 10 1 3 7 9 9 2 4 13 15 8 2 2 8 9 9 14 14 12 13 9 5 4 4 6 10 12 11 7 4 8 8 -3 -7 1 5 6 9 4 -8 -6 7 11 7 8 10 9 9 11 8 9 13 12 9 9 10 11 16 23 26 13 -2 7 22 18 11 9 6 4
7 8 8 12 14 9 1 2 12 19 15 6 3 6 4 7 14 15 13 8 1 2 7 4 5 11 11 12 13 7 4 2 -2 -2 -0 3 7 5 4 7 9 12 13 7 3 2 4 8 1 -9 -5 4 4 2 0 -2 -1 7 16 15 8 8 10 5 7 9 5 6 10 7 4 7 12 17 16 16 17 5 -4 11 21 12 8 7 5 6
15 15 9 8 10 9 2 -1 8 20 23 19 15 13 9 7 10 14 24 26 8 -1 3 4 10 14 4 1 12 13 5 0 -2 -3 -2 -0 4 7 11 13 10 9 8 5 7 9 4 -2 -7 -6 2 3 3 4 -5 -7 11 25 20 12 6 4 6 5 5 6 4 7 8 5 6 8 17 27 24 18 12 -2 -4 11 15 8 7 5 6 5
15 18 19 13 7 11 14 5 -4 -4 5 13 18 21 18 14 10 5 12 18 4 -2 5 -2 -6 7 7 -2 4 10 9 5 2 1 1 1 4 7 8 8 6 5 6 10 17 15 2 -4 -1 3 4 1 2 5 -2 1 21 25 12 4 4 3 5 9 11 10 11 11 7 7 12 14 23 34 23 7 3 1 7 17 16 11 8 6 13 12
17 7 15 20 8 2 11 18 10 -5 -9 -7 -3 3 7 13 19 13 6 3 -4 2 20 15 5 14 16 5 2 6 11 13 9 5 3 1 2 3 1 0 2 5 8 9 10 7 1 1 4 3 4 6 4 6 15 26 29 18 5 1 1 4 9 12 13 13 12 9 6 8 10 10 18 26 16 3 -1 1 12 18 10 5 12 22 24 6
26 11 9 15 11 3 2 9 14 12 8 4 -2 -2 -3 -3 10 19 17 12 5 2 8 8 7 12 12 7 7 7 9 11 9 7 7 6 6 6 2 0 -1 0 4 5 2 -1 -2 -2 -4 -8 -5 1 2 10 25 31 20 8 3 2 2 9 14 13 12 11 8 6 6 6 7 6 8 14 17 10 -4 -3 18 25 13 13 28 33 13 -17
10 17 18 10 5 10 10 5 4 5 10 13 9 8 8 1 -0 4 10 16 14 5 -1 -4 -2 3 2 -0 1 2 4 4 -1 -3 -0 2 7 9 8 8 5 -1 -2 -3 -7 -7 -5 -2 1 -0 -0 5 11 17 20 16 9 4 4 5 9 13 15 12 9 8 7 7 8 7 7 6 6 11 19 15 4 10 27 26 18 21 20 3 -16 -20
-15 -6 14 15 6 5 11 15 11 0 -4 2 6 8 10 9 6 -1 -1 6 9 8 8 5 1 1 2 1 -0 0 5 7 2 -3 -8 -10 -5 2 4 5 4 -0 -2 -6 -8 0 14 23 23 17 14 18 20 16 8 5 8 10 9 13 15 13 10 8 7 8 8 7 7 7 5 5 6 13 25 28 23 21 18 11 11 10 -3 -13 -8 1
-0 -16 -7 7 7 -1 -6 0 8 6 -3 -5 0 8 11 11 11 7 -2 -6 -4 -0 4 4 1 -3 -4 -1 -0 -2 1 5 6 5 -1 -6 -2 4 5 7 7 8 11 14 20 32 37 31 23 17 15 16 14 9 7 10 17 21 20 18 14 10 8 9 9 9 6 5 4 2 5 10 13 20 33 32 21 13 7 2 -1 -6 -5 6 10 5
16 1 -5 1 8 7 -0 -4 -1 3 4 0 -3 2 9 11 13 16 14 7 4 3 2 2 5 3 -2 -4 -4 -5 -4 -4 1 8 10 6 6 6 4 5 8 11 15 22 32 35 24 10 7 11 11 11 13 14 15 17 19 19 16 13 11 10 10 9 6 4 4 6 6 6 15 21 21 28 33 14 -6 -1 9 2 -10 -9 4 11 1 -5
20 16 7 1 5 10 9 11 14 12 12 15 12 8 11 12 8 9 16 20 19 16 13 8 5 5 3 -1 -5 -3 -2 -7 -8 1 2 -5 -5 0 3 10 21 28 29 26 22 19 14 11 13 14 11 11 14 14 15 16 15 12 11 11 10 9 6 4 4 6 7 7 5 9 17 16 14 23 21 -3 -13 5 15 4 -2 6 10 -1 -11 -5
8 19 19 9 6 6 -0 3 14 14 7 8 10 9 12 16 14 7 3 5 9 14 19 21 21 22 24 20 12 11 13 7 3 10 16 13 13 13 13 18 30 35 31 22 13 10 11 11 10 8 8 9 10 9 10 10 8 7 8 7 6 6 6 6 6 6 8 14 22 30 34 29 25 23 13 -0 5 16 10 0 3 7 0 -8 -6 5
-4 4 15 11 5 6 5 7 13 13 8 6 5 1 -6 -5 8 17 13 9 13 15 12 12 16 20 25 26 23 22 25 24 19 17 20 22 19 15 15 21 26 22 14 8 6 7 6 4 5 8 11 13 13 11 9 7 7 8 8 7 6 5 3 4 6 10 22 37 41 34 27 20 13 6 1 1 5 5 -1 -2 2 3 1 2 8 12
5 -4 9 20 16 8 6 12 15 9 1 2 12 16 7 -5 -1 10 11 10 13 14 9 7 9 11 15 20 26 31 35 37 31 22 17 16 14 15 19 19 14 11 10 9 9 8 8 9 11 13 14 13 11 8 6 7 8 8 7 5 4 3 3 6 10 12 13 9 -2 -8 -5 -1 -3 -4 -1 -0 -1 1 7 9 8 9 9 9 12 12
19 8 13 24 29 26 18 18 29 33 21 9 8 14 17 17 17 18 17 16 16 15 15 17 21 26 26 22 22 24 23 22 22 21 18 13 10 11 12 9 6 11 18 19 15 13 14 14 13 11 9 8 7 7 8 9 8 6 6 5 3 4 8 9 10 10 4 -8 -14 -9 -2 -0 1 4 5 4 6 11 14 12 11 13 10 9 14 15
Height
5890 5891 5892 5893 5896 5899 5901 5902 5904 5906 5907 5906 5907 5910 5911 5913 5914 5915 5917 5918 5918 5918 5919 5920 5921 5922 5921 5920 5919 5919 5918 5918 5918 5918 5919 5919 5919 5920 5920 5920 5921 5921 5921 5922 5922 5922 5922 5922 5922 5921 5921 5921 5921 5921 5921 5921 5921 5921 5921 5922 5922 5922 5923 5923 5923 5923 5923 5923 5922 5922 5922 5921 5921 5920 5920 5919 5918 5918 5917 5916 5915 5914 5914 5913 5912 5911
5887 5889 5891 5894 5897 5899 5901 5902 5902 5904 5905 5905 5906 5908 5909 5911 5913 5914 5915 5916 5917 5917 5918 5919 5920 5920 5920 5919 5918 5918 5918 5918 5918 5918 5919 5919 5919 5920 5920 5920 5920 5920 5921 5921 5921 5921 5922 5922 5922 5921 5921 5921 5921 5921 5921 5921 5921 5921 5921 5921 5921 5922 5922 5922 5922 5922 5922 5922 5922 5921 5921 5921 5920 5920 5919 5919 5918 5917 5916 5915 5915 5914 5913 5912 5912 5910
5885 5887 5891 5895 5897 5897 5899 5899 5900 5902 5903 5904 5905 5905 5907 5909 5911 5911 5913 5914 5915 5915 5916 5917 5918 5919 5919 5919 5918 5918 5918 5918 5918 5918 5918 5919 5919 5920 5920 5920 5920 5920 5920 5920 5921 5921 5921 5921 5922 5921 5921 5921 5921 5921 5920 5920 5920 5920 5920 5920 5921 5921 5921 5921 5922 5921 5921 5921 5921 5920 5920 5920 5920 5919 5919 5918 5917 5917 5916 5915 5914 5913 5912 5911 5911 5910
5884 5887 5892 5893 5893 5894 5896 5897 5899 5901 5901 5901 5902 5904 5905 5907 5908 5910 5910 5911 5912 5913 5915 5915 5916 5917 5917 5918 5918 5918 5918 5918 5918 5918 5918 5918 5919 5919 5919 5919 5919 5919 5919 5919 5919 5919 5920 5920 5921 5921 5921 5921 5921 5920 5920 5920 5920 5920 5920 5920 5920 5920 5920 5920 5921 5920 5920 5920 5919 5919 5919 5918 5918 5918 5917 5917 5916 5915 5914 5913 5913 5912 5911 5910 5909 5908
5884 5888 5891 5890 5890 5892 5893 5895 5897 5899 5900 5900 5901 5902 5904 5905 5906 5908 5909 5909 5910 5911 5912 5913 5914 5915 5915 5916 5917 5918 5918 5918 5918 5918 5918 5918 5918 5918 5918 5918 5919 5918 5918 5918 5918 5918 5918 5919 5919 5920 5920 5920 5920 5920 5920 5920 5920 5920 5920 5920 5919 5919 5919 5919 5919 5919 5919 5918 5918 5918 5917 5917 5917 5916 5916 5915 5914 5913 5912 5911 5910 5910 5909 5908 5907 5906
5883 5887 5887 5886 5887 5889 5891 5892 5895 5897 5899 5899 5900 5902 5904 5904 5905 5906 5907 5907 5908 5908 5910 5911 5911 5912 5913 5914 5916 5917 5918 5918 5918 5918 5918 5917 5917 5917 5917 5917 5917 5917 5917 5917 5917 5917 5917 5917 5918 5918 5919 5919 5919 5919 5920 5920 5920 5920 5919 5919 5919 5918 5918 5918 5918 5917 5917 5917 5916 5916 5916 5915 5915 5914 5913 5912 5911 5911 5910 5909 5908 5907 5907 5906 5905 5904
5880 5883 5883 5884 5885 5886 5888 5890 5893 5896 5897 5898 5900 5902 5903 5904 5904 5904 5904 5906 5906 5906 5908 5909 5909 5910 5911 5913 5915 5916 5917 5918 5918 5918 5917 5916 5916 5916 5916 5916 5916 5916 5916 5916 5916 5916 5917 5917 5917 5917 5918 5918 5918 5918 5919 5919 5919 5919 5919 5918 5918 5917 5917 5916 5916 5916 5915 5915 5915 5914 5914 5913 5912 5912 5911 5910 5909 5909 5908 5907 5906 5905 5905 5904 5903 5902
5877 5879 5880 5881 5882 5883 5884 5887 5891 5894 5895 5898 5901 5902 5902 5903 5903 5903 5903 5904 5905 5906 5906 5906 5908 5908 5909 5911 5913 5914 5916 5916 5917 5917 5917 5916 5915 5915 5915 5915 5915 5915 5915 5915 5915 5916 5916 5916 5916 5916 5916 5917 5917 5917 5917 5917 5918 5917 5917 5917 5917 5916 5915 5915 5914 5914 5914 5913 5913 5912 5912 5911 5910 5910 5909 5908 5907 5906 5906 5905 5904 5903 5903 5902 5901 5900
5875 5876 5878 5880 5879 5880 5882 5886 5890 5891 5894 5898 5901 5901 5901 5902 5902 5902 5902 5903 5904 5904 5903 5904 5906 5906 5907 5910 5912 5912 5914 5915 5916 5916 5916 5915 5915 5914 5914 5914 5914 5914 5914 5914 5914 5915 5915 5915 5915 5915 5915 5916 5916 5916 5916 5916 5916 5916 5916 5915 5915 5914 5914 5913 5913 5913 5912 5912 5911 5910 5909 5909 5908 5908 5907 5906 5906 5905 5904 5903 5902 5902 5901 5900 5899 5899
5872 5873 5877 5878 5877 5878 5883 5887 5888 5889 5893 5898 5899 5898 5899 5900 5900 5900 5900 5901 5902 5900 5899 5902 5904 5904 5904 5908 5910 5910 5912 5914 5914 5915 5915 5914 5914 5913 5912 5912 5912 5912 5912 5912 5913 5913 5913 5913 5913 5914 5914 5914 5914 5914 5914 5914 5914 5914 5914 5914 5913 5913 5912 5912 5911 5911 5910 5909 5908 5908 5907 5906 5906 5906 5905 5904 5904 5903 5902 5901 5900 5899 5899 5898 5897 5896
5868 5870 5872 5873 5873 5877 5883 5885 5886 5887 5892 5896 5895 5895 5897 5897 5897 5897 5897 5898 5898 5895 5896 5900 5902 5902 5901 5904 5907 5908 5910 5912 5913 5913 5913 5913 5913 5912 5911 5911 5910 5910 5910 5910 5911 5911 5911 5910 5911 5911 5912 5912 5912 5912 5912 5912 5912 5912 5912 5912 5911 5911 5910 5910 5910 5909 5908 5907 5906 5905 5904 5904 5903 5903 5902 5901 5901 5900 5899 5898 5897 5896 5895 5894 5893 5892
5861 5863 5865 5867 5871 5876 5880 5881 5883 5886 5890 5891 5891 5893 5894 5894 5894 5894 5893 5894 5891 5891 5895 5898 5899 5898 5896 5899 5904 5907 5908 5910 5910 5911 5912 5912 5911 5910 5909 5909 5909 5909 5908 5908 5908 5908 5908 5908 5908 5909 5909 5909 5909 5909 5909 5909 5910 5910 5910 5910 5909 5909 5909 5908 5908 5907 5906 5905 5904 5903 5902 5901 5900 5899 5898 5898 5897 5896 5895 5895 5894 5893 5892 5891 5890 5890
5855 5858 5861 5864 5868 5872 5875 5877 5880 5882 5884 5886 5887 5890 5890 5890 5891 5890 5890 5889 5888 5889 5894 5896 5896 5893 5891 5896 5902 5903 5905 5907 5908 5909 5910 5910 5910 5909 5908 5907 5907 5907 5907 5907 5906 5905 5905 5906 5906 5906 5907 5907 5907 5907 5907 5907 5907 5907 5907 5907 5907 5907 5907 5906 5906 5905 5904 5903 5902 5902 5900 5899 5897 5896 5896 5895 5894 5893 5892 5891 5891 5890 5889 5888 5888 5887
5852 5854 5857 5860 5863 5867 5869 5871 5874 5877 5879 5882 5884 5886 5886 5887 5887 5886 5887 5887 5887 5890 5892 5893 5892 5887 5887 5894 5898 5900 5903 5905 5905 5906 5907 5908 5908 5908 5906 5906 5906 5906 5905 5905 5905 5904 5904 5904 5904 5904 5905 5905 5905 5904 5904 5904 5905 5905 5905 5905 5905 5905 5905 5904 5903 5903 5902 5901 5901 5900 5899 5897 5896 5894 5893 5892 5891 5891 5890 5889 5888 5887 5886 5885 5884 5884
5848 5849 5852 5855 5858 5862 5864 5866 5871 5875 5878 5880 5882 5884 5884 5884 5884 5884 5885 5885 5886 5889 5890 5890 5886 5882 5885 5892 5895 5898 5900 5902 5903 5904 5905 5906 5906 5906 5905 5905 5905 5905 5904 5904 5903 5903 5903 5903 5903 5903 5902 5903 5903 5902 5902 5902 5902 5903 5903 5902 5903 5903 5903 5902 5901 5900 5900 5899 5898 5898 5896 5895 5894 5893 5892 5890 5889 5888 5887 5887 5886 5885 5883 5882 5881 5881
5843 5846 5852 5854 5855 5859 5862 5865 5870 5873 5875 5877 5879 5880 5879 5881 5883 5884 5883 5884 5886 5886 5886 5885 5883 5882 5886 5891 5893 5895 5897 5899 5901 5902 5903 5904 5904 5904 5904 5904 5904 5903 5903 5903 5902 5902 5902 5902 5901 5901 5901 5900 5900 5900 5900 5900 5900 5900 5900 5900 5901 5901 5901 5900 5899 5898 5897 5897 5896 5895 5894 5893 5892 5891 5890 5889 5888 5886 5885 5884 5883 5882 5880 5879 5878 5878
5840 5845 5851 5852 5853 5857 5859 5863 5867 5868 5870 5873 5874 5874 5877 5881 5883 5882 5882 5882 5883 5882 5881 5882 5882 5883 5886 5888 5891 5892 5894 5896 5898 5899 5901 5901 5901 5902 5902 5903 5903 5902 5902 5902 5901 5901 5900 5900 5899 5899 5898 5898 5897 5898 5898 5898 5898 5898 5898 5899 5899 5899 5898 5897 5896 5896 5895 5894 5893 5892 5891 5890 5889 5889 5888 5887 5886 5884 5883 5881 5880 5879 5877 5876 5875 5875
5838 5842 5847 5848 5850 5854 5858 5862 5864 5864 5866 5869 5870 5872 5877 5879 5879 5878 5879 5879 5879 5879 5879 5879 5881 5882 5883 5886 5888 5890 5892 5894 5895 5897 5898 5899 5899 5900 5901 5901 5901 5901 5901 5901 5900 5900 5899 5898 5897 5896 5895 5895 5894 5895 5895 5895 5895 5896 5896 5897 5897 5896 5895 5894 5893 5893 5892 5891 5890 5889 5888 5887 5886 5885 5885 5884 5883 5882 5880 5879 5877 5876 5874 5873 5872 5872
5833 5838 5842 5844 5847 5852 5855 5858 5858 5859 5862 5865 5867 5871 5874 5873 5873 5874 5874 5875 5875 5876 5876 5877 5879 5880 5881 5883 5887 5889 5890 5891 5893 5894 5895 5896 5897 5898 5899 5899 5899 5900 5900 5900 5899 5898 5898 5897 5896 5895 5893 5892 5892 5892 5892 5893 5893 5893 5894 5894 5894 5893 5892 5891 5891 5890 5889 5888 5887 5886 5884 5883 5882 5882 5882 5881 5880 5879 5877 5875 5874 5873 5871 5871 5870 5869
5829 5832 5836 5840 5843 5847 5849 5849 5851 5854 5857 5860 5863 5866 5868 5869 5871 5872 5872 5872 5873 5873 5874 5875 5876 5877 5880 5882 5885 5888 5889 5890 5891 5892 5893 5894 5895 5896 5897 5897 5897 5898 5898 5898 5897 5896 5896 5896 5895 5893 5892 5891 5890 5890 5890 5891 5891 5891 5891 5891 5891 5891 5890 5889 5888 5887 5885 5884 5883 5882 5881 5879 5879 5879 5878 5877 5876 5875 5873 5872 5871 5870 5869 5868 5868 5867
5824 5826 5831 5836 5838 5840 5841 5843 5847 5852 5854 5856 5858 5860 5862 5864 5866 5868 5869 5869 5870 5871 5871 5872 5873 5875 5880 5882 5884 5886 5887 5888 5888 5889 5890 5891 5893 5894 5895 5895 5895 5895 5896 5895 5895 5894 5894 5893 5892 5892 5890 5889 5889 5889 5889 5889 5889 5888 5888 5889 5889 5888 5887 5886 5885 5884 5882 5880 5880 5879 5878 5877 5876 5875 5875 5873 5872 5871 5870 5869 5868 5867 5867 5866 5865 5864
5818 5820 5826 5831 5831 5833 5838 5842 5847 5851 5852 5853 5855 5856 5859 5861 5862 5865 5865 5864 5867 5869 5869 5870 5870 5873 5878 5880 5882 5883 5884 5885 5885 5886 5887 5888 5890 5891 5892 5893 5893 5893 5893 5893 5893 5892 5891 5891 5890 5889 5888 5888 5887 5887 5887 5887 5886 5886 5886 5886 5886 5885 5884 5883 5882 5880 5878 5877 5876 5875 5874 5873 5871 5871 5870 5868 5867 5866 5866 5866 5866 5865 5864 5863 5862 5860
5816 5818 5821 5825 5827 5831 5837 5840 5844 5847 5849 5851 5852 5854 5857 5858 5859 5860 5861 5862 5865 5866 5867 5868 5867 5869 5873 5877 5878 5880 5881 5881 5882 5883 5884 5885 5887 5888 5890 5890 5891 5891 5891 5891 5891 5890 5889 5889 5888 5887 5887 5886 5886 5886 5886 5885 5885 5884 5884 5884 5883 5883 5882 5880 5878 5876 5874 5873 5872 5871 5869 5867 5866 5865 5865 5864 5863 5863 5863 5863 5862 5861 5860 5859 5858 5857
5813 5813 5816 5822 5826 5829 5834 5836 5839 5842 5844 5845 5846 5850 5852 5854 5856 5858 5859 5861 5863 5863 5865 5866 5864 5865 5870 5873 5875 5877 5878 5878 5879 5880 5881 5882 5884 5885 5887 5887 5888 5888 5888 5889 5888 5888 5887 5887 5886 5886 5886 5885 5885 5885 5885 5884 5884 5883 5883 5882 5882 5880 5878 5876 5874 5873 5871 5870 5868 5866 5863 5861 5861 5862 5862 5860 5859 5859 5860 5860 5858 5856 5856 5855 5854 5853
5807 5808 5812 5817 5821 5823 5827 5829 5832 5835 5837 5838 5841 5845 5848 5851 5854 5856 5857 5859 5859 5859 5862 5862 5861 5862 5867 5870 5872 5874 5875 5876 5877 5878 5878 5879 5881 5882 5883 5884 5885 5885 5885 5885 5885 5885 5885 5884 5884 5884 5884 5884 5884 5883 5883 5883 5882 5882 5882 5881 5880 5878 5876 5873 5871 5870 5869 5866 5863 5859 5856 5856 5861 5863 5860 5857 5856 5856 5856 5855 5854 5853 5852 5851 5850 5849
5805 5806 5808 5811 5813 5815 5817 5821 5826 5831 5834 5835 5838 5841 5844 5848 5850 5852 5854 5854 5854 5856 5858 5858 5858 5861 5864 5866 5868 5870 5872 5873 5874 5875 5876 5877 5878 5879 5880 5881 5881 5881 5881 5881 5881 5882 5882 5882 5881 5881 5881 5881 5881 5880 5880 5880 5880 5880 5880 5879 5878 5876 5874 5872 5869 5868 5866 5862 5858 5853 5852 5856 5859 5859 5855 5852 5851 5850 5850 5849 5849 5848 5847 5846 5846 5845
5803 5803 5805 5807 5810 5813 5816 5821 5828 5832 5833 5834 5836 5839 5841 5843 5846 5849 5849 5850 5851 5853 5854 5855 5857 5858 5860 5862 5865 5866 5868 5870 5871 5872 5873 5874 5875 5876 5877 5877 5878 5878 5878 5878 5878 5879 5879 5879 5879 5878 5878 5878 5878 5877 5877 5877 5878 5878 5878 5877 5875 5873 5872 5869 5866 5865 5862 5858 5854 5850 5851 5855 5855 5853 5851 5849 5845 5844 5844 5844 5844 5844 5843 5842 5841 5841
5798 5799 5801 5804 5808 5813 5818 5823 5827 5829 5830 5832 5835 5836 5838 5840 5842 5844 5844 5846 5849 5850 5850 5852 5855 5855 5857 5859 5862 5863 5865 5867 5868 5869 5870 5871 5871 5872 5873 5874 5874 5875 5875 5875 5875 5876 5876 5876 5876 5876 5876 5875 5875 5875 5875 5875 5875 5875 5874 5874 5872 5871 5869 5865 5862 5861 5859 5856 5852 5850 5850 5850 5849 5847 5847 5845 5841 5839 5840 5840 5840 5840 5840 5839 5838 5837
5793 5795 5798 5801 5805 5810 5815 5819 5823 5825 5827 5829 5831 5832 5835 5836 5838 5840 5841 5844 5846 5846 5848 5851 5852 5852 5854 5857 5858 5860 5862 5863 5864 5865 5866 5867 5868 5869 5869 5870 5871 5871 5872 5872 5872 5872 5873 5873 5873 5873 5873 5872 5872 5872 5871 5871 5871 5871 5870 5869 5868 5867 5864 5861 5858 5857 5856 5854 5851 5850 5847 5843 5842 5843 5843 5841 5839 5837 5837 5837 5836 5836 5837 5836 5835 5834
5790 5791 5795 5798 5801 5806 5811 5815 5819 5821 5823 5825 5827 5829 5831 5833 5834 5837 5840 5842 5843 5843 5846 5848 5848 5849 5852 5854 5856 5857 5858 5860 5861 5861 5862 5863 5864 5865 5866 5866 5867 5868 5868 5869 5869 5869 5869 5870 5870 5870 5870 5869 5868 5868 5868 5867 5866 5866 5865 5863 5862 5861 5859 5857 5855 5854 5853 5851 5847 5846 5843 5838 5837 5839 5839 5837 5835 5834 5833 5833 5832 5832 5833 5832 5831 5830
5786 5789 5792 5795 5797 5800 5806 5812 5815 5817 5819 5822 5824 5826 5828 5829 5831 5834 5836 5838 5840 5841 5843 5844 5845 5847 5850 5852 5853 5854 5855 5856 5857 5858 5859 5860 5861 5862 5863 5863 5864 5865 5864 5865 5865 5865 5866 5866 5866 5866 5866 5865 5865 5864 5864 5863 5862 5860 5859 5858 5856 5854 5853 5852 5851 5850 5849 5846 5843 5841 5838 5833 5834 5836 5835 5833 5831 5830 5829 5830 5830 5829 5829 5827 5826 5825
5783 5786 5789 5791 5792 5794 5800 5806 5811 5814 5817 5817 5819 5822 5823 5825 5827 5829 5832 5834 5836 5838 5839 5840 5841 5844 5848 5849 5849 5850 5852 5853 5854 5855 5856 5856 5858 5859 5859 5860 5861 5861 5861 5861 5861 5862 5862 5862 5862 5862 5862 5862 5861 5860 5859 5857 5856 5855 5854 5853 5851 5849 5847 5846 5846 5845 5843 5841 5839 5837 5834 5831 5832 5833 5832 5830 5828 5826 5825 5826 5826 5825 5824 5822 5821 5820
5779 5781 5784 5787 5789 5791 5796 5802 5808 5812 5812 5811 5813 5816 5818 5820 5823 5826 5829 5831 5832 5834 5836 5837 5839 5842 5845 5846 5846 5847 5849 5850 5852 5852 5853 5854 5854 5855 5856 5856 5856 5857 5857 5858 5858 5858 5858 5858 5858 5858 5858 5857 5856 5855 5854 5853 5852 5851 5850 5848 5846 5844 5842 5841 5841 5840 5838 5836 5834 5832 5830 5829 5829 5829 5828 5826 5823 5820 5820 5821 5821 5820 5818 5816 5815 5814
5775 5777 5781 5784 5786 5789 5793 5799 5804 5806 5804 5805 5809 5813 5814 5816 5819 5822 5824 5825 5828 5830 5832 5834 5836 5839 5841 5842 5843 5845 5846 5847 5848 5849 5850 5850 5851 5851 5852 5852 5853 5854 5854 5854 5855 5855 5855 5854 5854 5854 5853 5852 5852 5851 5850 5849 5848 5847 5845 5843 5841 5839 5838 5837 5837 5836 5834 5832 5830 5828 5826 5825 5824 5823 5821 5820 5817 5814 5814 5815 5814 5813 5811 5810 5809 5809
5772 5775 5778 5781 5785 5788 5791 5794 5798 5798 5799 5802 5806 5808 5810 5812 5814 5816 5818 5820 5823 5826 5829 5831 5832 5834 5837 5839 5841 5842 5843 5843 5845 5845 5846 5846 5847 5848 5848 5849 5850 5851 5851 5851 5851 5851 5851 5850 5850 5849 5848 5847 5847 5846 5845 5844 5843 5842 5841 5839 5838 5836 5834 5833 5833 5832 5829 5827 5825 5824 5822 5820 5818 5816 5815 5812 5810 5809 5808 5808 5807 5806 5805 5805 5804 5804
5769 5772 5775 5779 5782 5784 5787 5790 5792 5793 5796 5799 5800 5801 5804 5806 5809 5811 5814 5816 5818 5821 5824 5827 5828 5830 5833 5835 5837 5838 5839 5839 5841 5841 5842 5843 5844 5845 5845 5846 5847 5847 5847 5847 5847 5847 5846 5846 5846 5845 5843 5843 5842 5841 5840 5840 5840 5839 5837 5836 5834 5832 5831 5829 5828 5827 5826 5823 5820 5818 5817 5816 5814 5811 5808 5806 5806 5806 5805 5803 5802 5801 5801 5800 5800 5800
5767 5770 5772 5775 5778 5781 5784 5786 5788 5790 5792 5792 5793 5795 5798 5800 5803 5806 5809 5811 5813 5817 5820 5823 5825 5827 5829 5831 5832 5834 5835 5836 5837 5838 5839 5840 5841 5841 5842 5842 5843 5843 5843 5843 5842 5842 5841 5841 5841 5840 5839 5839 5839 5838 5837 5836 5835 5835 5834 5832 5830 5828 5827 5825 5824 5822 5821 5819 5816 5814 5813 5812 5810 5807 5804 5803 5803 5803 5801 5799 5798 5797 5796 5796 5795 5795
5764 5767 5769 5772 5775 5779 5782 5783 5784 5786 5786 5786 5788 5791 5793 5795 5798 5802 5805 5807 5808 5811 5815 5818 5821 5823 5825 5826 5827 5829 5831 5833 5834 5835 5836 5837 5837 5838 5838 5838 5838 5838 5838 5837 5837 5836 5836 5836 5836 5835 5835 5835 5835 5835 5834 5832 5831 5830 5829 5827 5825 5824 5822 5821 5819 5818 5816 5814 5812 5810 5809 5808 5806 5803 5800 5799 5799 5798 5796 5795 5794 5793 5792 5791 5791 5791
5760 5763 5766 5769 5772 5775 5779 5781 5782 5782 5782 5783 5785 5787 5789 5791 5793 5799 5803 5803 5805 5807 5810 5812 5815 5817 5820 5822 5823 5825 5828 5829 5830 5831 5832 5833 5834 5834 5834 5834 5834 5833 5833 5832 5832 5832 5831 5831 5831 5831 5832 5832 5831 5830 5830 5828 5827 5825 5824 5822 5820 5819 5817 5815 5814 5813 5811 5809 5807 5805 5804 5803 5801 5798 5796 5796 5795 5793 5791 5790 5789 5788 5787 5786 5786 5786
5756 5759 5763 5766 5769 5771 5775 5777 5779 5780 5779 5780 5782 5784 5786 5787 5790 5796 5799 5800 5804 5808 5808 5810 5812 5813 5815 5818 5820 5822 5824 5826 5827 5827 5828 5829 5829 5830 5830 5829 5828 5828 5828 5827 5827 5827 5827 5827 5827 5827 5828 5827 5827 5826 5825 5824 5822 5820 5819 5817 5815 5813 5811 5810 5809 5808 5806 5804 5803 5801 5799 5798 5797 5794 5792 5792 5790 5789 5787 5785 5784 5783 5782 5782 5782 5782
5751 5754 5758 5761 5764 5767 5770 5773 5776 5777 5777 5778 5780 5782 5783 5785 5790 5794 5796 5798 5802 5805 5806 5808 5810 5810 5812 5815 5816 5818 5819 5821 5822 5823 5823 5824 5825 5825 5825 5824 5823 5823 5823 5823 5822 5822 5822 5823 5823 5823 5823 5822 5822 5821 5820 5818 5817 5815 5814 5812 5810 5808 5807 5805 5804 5803 5802 5800 5798 5796 5794 5793 5792 5790 5788 5786 5784 5783 5781 5780 5779 5779 5778 5778 5778 5778
5747 5749 5753 5757 5760 5762 5765 5768 5771 5773 5774 5775 5778 5779 5781 5785 5788 5790 5792 5795 5799 5801 5802 5804 5806 5807 5809 5810 5811 5813 5814 5816 5817 5818 5818 5819 5820 5820 5820 5819 5818 5818 5818 5818 5817 5817 5818 5818 5818 5818 5817 5817 5816 5815 5814 5813 5812 5811 5809 5807 5806 5804 5802 5801 5799 5798 5797 5795 5793 5791 5789 5788 5787 5785 5783 5781 5780 5778 5776 5775 5774 5774 5774 5774 5774 5773
5744 5745 5747 5751 5755 5758 5761 5763 5766 5769 5770 5772 5775 5777 5780 5783 5785 5787 5789 5792 5795 5797 5798 5800 5802 5803 5804 5805 5806 5807 5809 5810 5812 5812 5812 5813 5814 5814 5815 5814 5814 5813 5813 5813 5812 5812 5813 5813 5813 5813 5812 5812 5811 5810 5809 5808 5807 5806 5804 5803 5802 5800 5798 5796 5794 5793 5791 5789 5787 5786 5784 5783 5781 5780 5778 5777 5775 5774 5771 5770 5770 5771 5770 5769 5769 5768
5741 5742 5742 5745 5749 5753 5756 5759 5762 5765 5767 5769 5772 5775 5777 5779 5781 5784 5786 5788 5790 5793 5794 5795 5797 5798 5799 5800 5801 5802 5803 5804 5806 5806 5807 5808 5808 5809 5809 5809 5809 5809 5809 5809 5808 5807 5807 5807 5807 5807 5806 5806 5805 5804 5804 5803 5802 5801 5800 5798 5797 5795 5793 5791 5790 5788 5785 5783 5781 5780 5778 5777 5776 5774 5772 5771 5770 5769 5767 5766 5767 5767 5767 5766 5764 5762
5737 5739 5741 5742 5744 5747 5751 5755 5759 5761 5764 5766 5769 5771 5774 5775 5777 5780 5781 5783 5785 5788 5789 5790 5791 5792 5794 5795 5795 5796 5798 5799 5800 5801 5802 5802 5803 5803 5803 5803 5804 5804 5804 5804 5803 5802 5801 5801 5801 5801 5800 5800 5799 5798 5798 5798 5797 5796 5795 5793 5791 5790 5788 5786 5784 5782 5780 5778 5776 5774 5773 5771 5770 5768 5766 5764 5765 5765 5764 5763 5763 5763 5763 5762 5760 5758
5733 5736 5739 5740 5742 5744 5748 5751 5754 5757 5759 5762 5764 5767 5769 5771 5773 5774 5776 5778 5780 5782 5783 5785 5786 5787 5789 5789 5790 5791 5792 5794 5795 5796 5796 5796 5797 5797 5797 5797 5797 5797 5797 5797 5797 5796 5795 5795 5795 5795 5794 5794 5793 5792 5792 5792 5792 5791 5789 5787 5786 5784 5782 5780 5779 5777 5775 5773 5771 5769 5767 5766 5764 5763 5762 5760 5760 5760 5760 5759 5759 5758 5757 5757 5755 5754
5730 5732 5735 5737 5740 5744 5746 5748 5750 5753 5755 5757 5760 5762 5765 5767 5768 5769 5770 5772 5775 5776 5778 5779 5781 5782 5783 5784 5785 5786 5786 5788 5789 5790 5790 5792 5793 5793 5792 5792 5791 5790 5790 5791 5791 5790 5790 5789 5789 5789 5788 5788 5787 5787 5787 5786 5785 5784 5783 5781 5780 5778 5776 5774 5773 5771 5770 5769 5766 5763 5762 5761 5759 5757 5758 5757 5756 5755 5755 5755 5755 5753 5752 5751 5749 5747
5726 5728 5731 5734 5738 5740 5742 5744 5747 5749 5751 5753 5756 5758 5760 5762 5763 5764 5765 5767 5769 5771 5773 5775 5775 5776 5778 5778 5779 5780 5781 5782 5784 5784 5785 5787 5788 5788 5787 5786 5785 5785 5785 5785 5785 5784 5784 5784 5783 5783 5783 5783 5782 5782 5781 5780 5779 5778 5777 5775 5774 5773 5771 5768 5767 5766 5765 5763 5761 5758 5755 5755 5754 5754 5754 5754 5753 5753 5753 5752 5751 5749 5747 5745 5744 5742
5721 5724 5727 5730 5734 5736 5738 5741 5744 5746 5747 5749 5750 5753 5754 5755 5757 5759 5760 5762 5764 5766 5768 5769 5770 5772 5773 5773 5773 5774 5775 5777 5778 5779 5780 5780 5781 5781 5781 5780 5780 5780 5780 5779 5779 5778 5778 5778 5778 5778 5778 5778 5778 5777 5776 5775 5773 5773 5772 5770 5769 5767 5765 5762 5760 5760 5759 5757 5756 5753 5751 5750 5751 5752 5752 5751 5751 5750 5749 5747 5745 5744 5742 5740 5738 5737
5716 5720 5723 5727 5730 5732 5734 5736 5739 5742 5743 5745 5746 5748 5749 5751 5753 5754 5756 5758 5760 5762 5763 5764 5765 5767 5767 5767 5768 5769 5770 5771 5772 5773 5773 5774 5775 5775 5775 5774 5774 5775 5775 5774 5774 5773 5773 5774 5773 5773 5773 5773 5773 5772 5770 5769 5768 5768 5767 5765 5764 5762 5759 5756 5755 5755 5754 5753 5752 5751 5750 5749 5749 5748 5747 5746 5745 5743 5742 5740 5738 5737 5735 5733 5732 5730
5713 5717 5720 5723 5726 5728 5730 5732 5735 5737 5740 5741 5743 5745 5746 5747 5749 5751 5752 5754 5756 5757 5758 5760 5761 5762 5762 5763 5765 5765 5765 5765 5766 5767 5767 5768 5768 5768 5768 5769 5769 5769 5769 5769 5769 5769 5769 5769 5768 5768 5767 5768 5767 5766 5765 5764 5764 5763 5761 5760 5759 5756 5753 5751 5751 5751 5750 5750 5748 5747 5746 5745 5744 5742 5741 5739 5738 5736 5735 5733 5732 5730 5729 5727 5725 5723